Weather History for Sedalia, MO

Change the Weather History Date:

Friday, August 2, 2013

  Actual Average Record
Temperature  
Mean Temperature 78 °F 79 °F  
Max Temperature 85 °F 90 °F 110 °F (2011)
Min Temperature 71 °F 69 °F 51 °F (1992)
Degree Days  
Heating Degree Days 0 0  
Month to date heating degree days 0 0  
Since 1 June heating degree days 9 6  
Since 1 July heating degree days 0 0  
Cooling Degree Days 13 14  
Month to date cooling degree days 26 28  
Year to date cooling degree days 858 908  
Since 1 June cooling degree days 710 769  
Growing Degree Days 28 (Base 50)    
Moisture  
Dew Point 71 °F    
Average Humidity 82    
Maximum Humidity 94    
Minimum Humidity 69    
Precipitation  
Precipitation 0.05 in 0.07 in 1.48 in (1966)
Month to date precipitation 0.05 0.15  
Year to date precipitation 27.06 24.60  
Sea Level Pressure  
Sea Level Pressure 29.92 in    
Wind  
Wind Speed 6 mph (South)    
Max Wind Speed 17 mph    
Max Gust Speed 21 mph    
Visibility 9 miles    
Events Rain    
T = Trace of Precipitation, MM = Missing Value Source: NWS Daily Summary

Daily Weather History Graph

Daily Weather History Graph

Search for Another Location

Airport:

Trip Planner

Search our weather history database for the weather conditions in past years. The results will help you decide how hot, cold, wet, or windy it might be!

Date:

Astronomy

Aug. 02, 2013 Rise Set
Actual Time 6:15 AM CDT 8:22 PM CDT
Civil Twilight 5:45 AM CDT 8:51 PM CDT
Nautical Twilight 5:09 AM CDT 9:27 PM CDT
Astronomical Twilight 4:30 AM CDT 10:06 PM CDT
Moon 2:37 AM CDT (8/2) 5:19 PM CDT (8/2)
Length of Visible Light 15h 05m
Length of Day
14h 06m
Waning Crescent, 15% of the Moon is Illuminated
Aug 2
Waning Crescent
Aug 6
New
Aug 14
First Quarter
Aug 20
Full
Aug 28
Last Quarter

Hourly Weather History & Observations

Time (CDT) Temp. Heat Index Dew Point Humidity Pressure Visibility Wind Dir Wind Speed Gust Speed Precip Events Conditions
12:53 AM 75.0 °F - 64.9 °F 71% 29.96 in 10.0 mi SSW 4.6 mph - N/A   Clear
1:53 AM 73.0 °F - 66.0 °F 79% 29.96 in 10.0 mi Calm Calm - N/A   Clear
2:53 AM 72.0 °F - 66.0 °F 81% 29.95 in 10.0 mi South 3.5 mph - N/A   Clear
3:53 AM 73.9 °F - 64.9 °F 73% 29.96 in 10.0 mi SSW 5.8 mph - N/A   Clear
4:53 AM 75.0 °F - 66.0 °F 73% 29.96 in 10.0 mi SW 3.5 mph - N/A   Mostly Cloudy
5:53 AM 71.1 °F - 66.9 °F 87% 29.96 in 10.0 mi WNW 3.5 mph - 0.00 in   Clear
6:53 AM 72.0 °F - 66.9 °F 84% 29.95 in 10.0 mi SW 5.8 mph - 0.00 in Rain Light Rain
7:53 AM 71.1 °F - 68.0 °F 90% 29.94 in 7.0 mi SSW 5.8 mph - 0.03 in Rain Light Rain
8:53 AM 71.1 °F - 68.0 °F 90% 29.95 in 9.0 mi South 11.5 mph - 0.01 in Rain Light Rain
9:53 AM 73.0 °F - 70.0 °F 90% 29.91 in 10.0 mi SSE 11.5 mph - 0.01 in   Overcast
10:53 AM 73.0 °F - 70.0 °F 90% 29.92 in 10.0 mi South 5.8 mph - N/A   Overcast
11:53 AM 75.9 °F - 71.1 °F 85% 29.93 in 9.0 mi South 11.5 mph - N/A   Overcast
12:50 PM 78.8 °F - 69.8 °F 74% 29.92 in 10.0 mi South 11.5 mph - N/A   Mostly Cloudy
12:53 PM 78.1 °F - 70.0 °F 76% 29.89 in 10.0 mi South 12.7 mph - N/A   Mostly Cloudy
1:53 PM 80.1 °F 83.8 °F 72.0 °F 76% 29.90 in 10.0 mi South 5.8 mph - N/A   Overcast
2:53 PM 82.9 °F 89.4 °F 73.9 °F 74% 29.89 in 10.0 mi SSW 13.8 mph 18.4 mph N/A   Mostly Cloudy
3:12 PM 84.2 °F 90.9 °F 73.4 °F 70% 29.91 in 10.0 mi SW 13.8 mph - N/A   Scattered Clouds
3:38 PM 82.4 °F 88.2 °F 73.4 °F 74% 29.90 in 9.0 mi SW 11.5 mph - N/A   Overcast
3:53 PM 82.9 °F 88.8 °F 73.0 °F 72% 29.87 in 9.0 mi SW 11.5 mph - N/A   Overcast
4:11 PM 82.4 °F 88.2 °F 73.4 °F 74% 29.90 in 10.0 mi SW 8.1 mph - N/A   Overcast
4:53 PM 81.0 °F 86.7 °F 75.0 °F 82% 29.88 in 9.0 mi NNE 9.2 mph - N/A   Overcast
5:21 PM 82.4 °F 89.5 °F 75.2 °F 79% 29.91 in 9.0 mi NE 5.8 mph - N/A   Overcast
5:53 PM 82.9 °F 90.2 °F 75.0 °F 77% 29.88 in 9.0 mi East 3.5 mph - N/A   Mostly Cloudy
6:53 PM 81.0 °F 86.7 °F 75.0 °F 82% 29.89 in 8.0 mi Calm Calm - N/A   Overcast
7:53 PM 81.0 °F 86.7 °F 75.0 °F 82% 29.91 in 8.0 mi Calm Calm - N/A   Overcast
8:12 PM 80.6 °F 86.2 °F 75.2 °F 84% 29.94 in 8.0 mi Calm Calm - N/A   Overcast
8:20 PM 80.6 °F 86.2 °F 75.2 °F 84% 29.94 in 8.0 mi NE 4.6 mph - N/A   Overcast
8:29 PM 80.6 °F 86.2 °F 75.2 °F 84% 29.94 in 8.0 mi NE 4.6 mph - N/A   Overcast
8:53 PM 79.0 °F - 75.0 °F 88% 29.92 in 8.0 mi NE 6.9 mph - N/A   Overcast
9:53 PM 75.9 °F - 73.0 °F 91% 29.91 in 8.0 mi ENE 4.6 mph - N/A   Scattered Clouds
10:53 PM 75.0 °F - 72.0 °F 90% 29.91 in 7.0 mi Calm Calm - N/A   Clear
11:53 PM 73.9 °F - 72.0 °F 93% 29.93 in 5.0 mi ENE 3.5 mph - N/A   Overcast